Lexington Weather

Lexington, Massachusetts, USA

34°F
4/16/2021 10:29am 
  • Lexington Conditions: Snow, Fog, Overcast
  • Temperature: 34.0°F / 1.1°C 
  • Dew Point: 32.7°F 
  • Relative Humidity: 95
  • Wind: Calm, 10-min avg: Calm, gust: None
  • Barometer: 29.48 in Steady
  • Visibility: ½ mile
  • Snow Today: 1.3 in
  •   

Regional Weather Roundup
for Boston / Norton, MA

        
000
ASUS41 KBOX 111705
RWRBOX

REGIONAL WEATHER ROUNDUP
NATIONAL WEATHER SERVICE BOSTON/NORTON MA
100 PM EDT SUN APR 11 2021

NOTE:  "FAIR" INDICATES FEW OR NO CLOUDS BELOW 12,000 FEET WITH NO 
SIGNIFICANT WEATHER AND/OR OBSTRUCTIONS TO VISIBILITY.

MAZALL-111800-
EASTERN MASSACHUSETTS
  
CITY           SKY/WX    TMP DP  RH WIND       PRES   REMARKS
BOSTON         CLOUDY    48  42  80 NE17      29.79S                  
BEVERLY        NOT AVBL                                               
LAWRENCE       CLOUDY    45  41  86 NE13G20   29.81S                  
BEDFORD        CLOUDY    47  41  80 E13G21    29.77S                  
BLUE HILL        N/A     43  42  97 NE17G32   29.74S                  
NORWOOD        CLOUDY    48  42  80 NE13G26   29.77S                  
MARSHFIELD     CLOUDY    46  45  93 NE12      29.76F FOG              
PLYMOUTH       CLOUDY    46  43  89 NE16G29   29.74S FOG              
TAUNTON        CLOUDY    48  44  86 N8G21     29.74S                  
NEW BEDFORD    CLOUDY    50  45  83 NE14G25   29.72S                  
$$

MAZALL-111800-
CAPE COD AND THE ISLANDS
  
CITY           SKY/WX    TMP DP  RH WIND       PRES   REMARKS
FALMOUTH       FOG       46  46 100 NE15G25   29.72S VSB 3/4          
HYANNIS        CLOUDY    50  46  86 NE13G22   29.70S FOG              
CHATHAM        CLOUDY    48  45  89 NE9G22    29.72F FOG              
PROVINCETOWN   CLOUDY    46  44  93 NE14      29.76S FOG              
NANTUCKET      CLOUDY    52  48  86 NE14      29.69S                  
MARTHAS VNYRD  CLOUDY    54  47  77 N13G24    29.70S                  
$$
 
MAZALL-111800-
CENTRAL AND WESTERN MASSACHUSETTS
  
CITY           SKY/WX    TMP DP  RH WIND       PRES   REMARKS
WORCESTER      PTSUNNY   53  42  66 E16G24    29.72F                  
FITCHBURG      MOSUNNY   53  43  68 E14       29.76R                  
ORANGE         PTSUNNY   61  42  49 E8        29.70F                  
SPRINGFIELD    PTSUNNY   55  46  71 E12       29.69S                  
WESTFIELD      CLOUDY    57  48  72 NE7       29.69S                  
NORTH ADAMS    PTSUNNY   62  49  62 E15       29.65F                  
PITTSFIELD     CLOUDY    63  51  65 E9        29.64F                  
$$
 
RIZALL-111800-
RHODE ISLAND
  
CITY           SKY/WX    TMP DP  RH WIND       PRES   REMARKS
PROVIDENCE     CLOUDY    51  44  77 NE15      29.74S                  
NEWPORT        CLOUDY    50  45  83 N15       29.72R                  
BLOCK ISLAND   CLOUDY    48  46  93 NE13G21   29.71S                  
SMITHFIELD     CLOUDY    48  45  89 NE13G21   29.74S                  
WESTERLY       CLOUDY    56  46  69 N10       29.69S                  
$$
 
CTZALL-111800-
CONNECTICUT
  
CITY           SKY/WX    TMP DP  RH WIND       PRES   REMARKS
BRADLEY INTL   CLOUDY    60  49  66 NE14      29.67F                  
HARTFORD       CLOUDY    64  53  67 E8        29.66F                  
BRIDGEPORT     CLOUDY    52  50  93 NE14      29.64F                  
DANBURY        CLOUDY    62  55  77 E10       29.64F                  
GROTON         CLOUDY    59  51  75 E8        29.66F                  
NEW HAVEN      FOG       55  53  93 E12       29.65F VSB 1/4          
CHESTER        CLOUDY   N/A N/A N/A E7        29.66F                  
MERIDEN        CLOUDY    64  54  69 E3        29.64F                  
WILLIMANTIC    CLOUDY    54  47  77 NE12      29.70F                  
OXFORD         CLOUDY    59  59 100 E7        29.65F                  
$$

MEZ002-015-021-024-NHZ003-005-008-011-012-014-VTZ005-008-111800-
NORTHERN NEW ENGLAND
  
CITY           SKY/WX    TMP DP  RH WIND       PRES   REMARKS
PORTLAND ME    MOSUNNY   46  40  79 E9        29.83F                  
BANGOR ME      MOSUNNY   53  32  44 N5        29.82F                  
CONCORD NH     PTSUNNY   51  40  65 E12       29.79R                  
MANCHESTER NH  CLOUDY    49  39  68 E9G17     29.79R                  
NASHUA NH      CLOUDY    48  43  82 NE10      29.80R                  
PORTSMOUTH NH  CLOUDY    44  38  78 E14       29.82F                  
JAFFREY NH     MOSUNNY   60  42  51 MISG      29.73S                  
KEENE NH       MOSUNNY   64  43  46 CALM      29.70F                  
BURLINGTON VT  PTSUNNY   63  44  50 NW10      29.65F                  
MT. WASHINGTON FOG       43  43 100 NW13        N/A  VSB 1/16         
$$

NYZ052-076-111800-
EASTERN NEW YORK
  
CITY           SKY/WX    TMP DP  RH WIND       PRES   REMARKS
ALBANY         CLOUDY    70  53  54 SE8       29.59F                  
NEW YORK CITY  LGT RAIN  52  50  93 NE14      29.60S VSB 1/4          
$$
 
ANZALL-111800-
MARINE OBSERVATIONS
  
STATION/POSITION TIME  TEMP    WIND        PRES    VSBY  WAVE
                       AIR SEA DIR/SP/G                  HT/PER
                 (UTC) (F)     (DEG/KT/KT) (MB)    (MI)  (FT/S)
BOSTON BUOY      1640   44 44   40/ 17/ 21 1008.7R
BUZZARDS BAY     1600           40/ 18/ 19 1006.9F
NANTUCKET SOUND  1640      47                N/A
MASS BAY-STELLWA 1604   45      50/ 19/ 23 1006.7F  1 7/8
ISLE OF SHOALS   1600   41      40/ 25/ 28 1008.5F
S OF BLOCK IS    1626      46                N/A           3/10
$$

......................KEY.........................
  SKY/WX - SKY CONDITION/PRESENT WEATHER
  TMP    - TEMPERATURE IN FAHRENHEIT
  DWPT   - DEWPOINT IN FAHRENHEIT
  RH     - RELATIVE HUMIDITY IN PERCENT
  WIND   - DIRECTION AND SPEED IN MPH
  PRES   - MEAN SEA LEVEL PRESSURE IN INCHES OF HG
  WCI    - WIND CHILL INDEX
  VSB    - VISIBILITY IN MILES
  HX     - HEAT INDEX
  TC     - TEMPERATURE IN CELSIUS
  VRB    - VARIABLE WIND DIRECTION
  N/A    - NOT AVAILABLE
  
      

Other recent Regional Weather Roundups

Fri Apr 16, 10:05am

Fri Apr 16, 9:04am

Fri Apr 16, 8:04am

Fri Apr 16, 7:04am

Fri Apr 16, 6:04am

Fri Apr 16, 5:04am

Fri Apr 16, 4:04am

Fri Apr 16, 3:04am

Fri Apr 16, 2:04am

Fri Apr 16, 1:04am

Fri Apr 16, 12:04am

Thu Apr 15, 11:05pm

Thu Apr 15, 10:04pm

Thu Apr 15, 9:04pm

Thu Apr 15, 8:04pm

Thu Apr 15, 7:05pm

Thu Apr 15, 6:04pm

Thu Apr 15, 5:05pm

Thu Apr 15, 4:04pm

Thu Apr 15, 3:05pm

Thu Apr 15, 2:04pm

Thu Apr 15, 1:05pm

Thu Apr 15, 12:04pm

Thu Apr 15, 11:04am

Thu Apr 15, 10:05am

Thu Apr 15, 9:04am

Thu Apr 15, 8:04am

Thu Apr 15, 7:04am

Thu Apr 15, 6:04am

Thu Apr 15, 5:04am

Thu Apr 15, 4:04am

Thu Apr 15, 3:04am

Thu Apr 15, 2:04am

Thu Apr 15, 1:04am

Thu Apr 15, 12:04am

Wed Apr 14, 11:04pm

Wed Apr 14, 10:04pm

Wed Apr 14, 9:04pm

Wed Apr 14, 8:04pm

Wed Apr 14, 7:04pm

Wed Apr 14, 6:04pm

Wed Apr 14, 5:05pm

Wed Apr 14, 4:04pm

Wed Apr 14, 3:05pm

Wed Apr 14, 2:04pm

Wed Apr 14, 1:05pm

Wed Apr 14, 12:04pm

Wed Apr 14, 11:04am

Wed Apr 14, 10:04am

Wed Apr 14, 9:04am

Wed Apr 14, 8:04am

Wed Apr 14, 7:04am

Wed Apr 14, 6:04am

Wed Apr 14, 5:04am

Wed Apr 14, 4:04am

Wed Apr 14, 3:04am

Wed Apr 14, 2:04am

Wed Apr 14, 1:04am

Wed Apr 14, 12:04am

Tue Apr 13, 11:04pm

Tue Apr 13, 10:05pm

Tue Apr 13, 9:05pm

Tue Apr 13, 8:05pm

Tue Apr 13, 7:04pm

Tue Apr 13, 6:04pm

Tue Apr 13, 5:05pm

Tue Apr 13, 4:04pm

Tue Apr 13, 3:04pm

Tue Apr 13, 2:05pm

Tue Apr 13, 1:04pm

Tue Apr 13, 12:05pm

Tue Apr 13, 11:05am

Tue Apr 13, 10:04am

Tue Apr 13, 9:04am

Tue Apr 13, 8:04am

Tue Apr 13, 7:04am

Tue Apr 13, 6:04am

Tue Apr 13, 5:04am

Tue Apr 13, 4:04am

Tue Apr 13, 3:04am

Tue Apr 13, 2:04am

Tue Apr 13, 1:04am

Tue Apr 13, 12:05am

Mon Apr 12, 11:04pm

Mon Apr 12, 10:04pm

Mon Apr 12, 9:04pm

Mon Apr 12, 8:04pm

Mon Apr 12, 7:05pm

Mon Apr 12, 6:04pm

Mon Apr 12, 5:04pm

Mon Apr 12, 4:04pm

Mon Apr 12, 3:05pm

Mon Apr 12, 2:04pm

Mon Apr 12, 1:05pm

Mon Apr 12, 12:04pm

Mon Apr 12, 11:04am

Mon Apr 12, 10:04am

Mon Apr 12, 9:04am

Mon Apr 12, 8:04am

Mon Apr 12, 7:04am

Mon Apr 12, 6:04am

Mon Apr 12, 5:04am

Mon Apr 12, 4:04am

Mon Apr 12, 3:04am

Mon Apr 12, 2:04am

Mon Apr 12, 1:05am

Mon Apr 12, 12:04am

Sun Apr 11, 11:04pm

Sun Apr 11, 10:04pm

Sun Apr 11, 9:04pm

Sun Apr 11, 8:04pm

Sun Apr 11, 7:04pm

Sun Apr 11, 6:05pm

Sun Apr 11, 5:05pm

Sun Apr 11, 4:04pm

Sun Apr 11, 3:05pm

Sun Apr 11, 2:05pm

Sun Apr 11, 12:04pm

Sun Apr 11, 11:05am

Sun Apr 11, 10:05am

Sun Apr 11, 9:04am

Sun Apr 11, 8:04am

Sun Apr 11, 7:04am

Sun Apr 11, 6:04am

Sun Apr 11, 5:04am

Sun Apr 11, 4:04am

Sun Apr 11, 3:04am

Sun Apr 11, 2:04am

Sun Apr 11, 1:05am

Sun Apr 11, 12:04am

Sat Apr 10, 11:05pm

Sat Apr 10, 10:04pm

Sat Apr 10, 9:04pm

Sat Apr 10, 8:04pm

Sat Apr 10, 7:05pm

Sat Apr 10, 6:04pm

Sat Apr 10, 5:04pm

Sat Apr 10, 4:04pm

Sat Apr 10, 3:04pm

Sat Apr 10, 2:05pm

Sat Apr 10, 1:04pm

Sat Apr 10, 12:04pm

Sat Apr 10, 11:04am

Sat Apr 10, 10:04am

Sat Apr 10, 9:04am

Sat Apr 10, 8:04am

Sat Apr 10, 7:04am

Sat Apr 10, 6:04am

Sat Apr 10, 5:04am

Sat Apr 10, 4:04am

Sat Apr 10, 3:04am

Sat Apr 10, 2:04am

Sat Apr 10, 1:05am

Sat Apr 10, 12:04am

Fri Apr 9, 11:04pm

Fri Apr 9, 10:05pm

Fri Apr 9, 9:04pm

Fri Apr 9, 8:05pm

Fri Apr 9, 7:05pm

Fri Apr 9, 6:04pm

Fri Apr 9, 5:04pm

Fri Apr 9, 4:05pm

Fri Apr 9, 3:05pm

Fri Apr 9, 2:04pm

Fri Apr 9, 1:04pm

Fri Apr 9, 12:04pm

Fri Apr 9, 11:05am

Meta data:

ID: d5657825-b579-445e-862c-75f25207be64
Link: https://api.weather.gov/products/d5657825-b579-445e-862c-75f25207be64